Starlink 30845

operational
NORAD ID: 58207 Int'l Des: 2023-170 Owner: SPXS Country: US Constellation: starlink
LEOCIRCULAR

Über Starlink 30845

Beschreibung wird geladen...

Live-Position

3D-Globus wird geladen...

Nächste Überflüge

Höhenverlauf

Altitude vs Time

uPlot chart will show altitude changes over time

Zweizeiliger Elementsatz

1 58207U 23170B 25258.19849776 .00002332 00000-0 18760-3 0 9993
2 58207 43.0019 69.2892 0001432 271.4003 88.6676 15.02542088103880
Epoch: 15. Sept. 2025 • Age: 9 hours

Aktueller Status

Höhe 561.9 km
Geschwindigkeit 7.58 km/s
Subsatellitenpunkt -16.20°S, 159.15°W
Startdatum 4. Nov. 2023
Alter 1.8 years
Typ internet

Technische Details

Klassifizierung Payload
Masse 730.00 kg
Trockenmasse 700.00 kg
Gesamtmasse 730.00 kg
Länge 0.30 m
Durchmesser 4.10 m
Spannweite 29.00 m
Form Box + pan
Hersteller SPXS
Bus-Typ Starlink V2M
Phasenstatus In Orbit
Besitzer/Staat SPXS/US

Große Konstellationen

Loading constellations...